Weather in Nordhorn

Germany     52°25′52″N   7°03′49″E
temp.,
°C
wind,
m/s
gust,
m/s
humid.,
%
clouds,
%
prec.,
mm/h
press.,
hPa
HPBL,
m
27 january, wed
wed2701:00+2sw51094100 0.0 1015459
04:00+1ssw41082100 0.0 1014389
07:00+1ssw61197100 0.1 1011678
10:00+2s6997100 1.6 1010416
13:00+3ssw5895100 4.4 1009296
16:00+4wsw4996100 0.1 1009367
19:00+5wsw4109698 0.1 1009382
22:00+5wsw61196100 1.1 1009448
28 january, thu
thu2801:00+5wsw4898100 1.3 1009303
04:00+5w2499100 0.4 1008161
07:00+5ene1199100 0.5 100546
10:00+4e4697100 0.3 1003247
13:00+4ene5894100 1.7 1001318
16:00+3ne5896100 1.8 1001272
19:00+2ene5895100 2.3 1003284
22:00+2ese4694100 0.1 1003312
29 january, fri
fri2901:00+2ese4791100 0.3 1001292
04:00+3se5895100 0.1 997223
07:00+5se5899100 5.3 992224
10:00+8w81592100 3.4 992758
13:00+8w71282100 3.6 9931002
16:00+8w61287100 0.6 992724
19:00+7wsw5118888 0.6 994680
22:00+6nw7119299 0.1 997532
30 january, sat
sat3001:000nne7108399 0.1 1001731
04:00−1ne588198 0.0 1003798
07:00−2e268590 0.0 1004419
10:00−1e5871100 0.0 1003568
13:00+1e61060100 0.0 1002745
16:00+1e71160100 0.0 1000696
19:00−1e71366100 0.0 1001582
22:00−1e71258100 0.0 1001577
31 january, sun
sun3101:00−1ene61159100 0.0 1001485
04:00−2ene6960100 0.0 1000371
07:00−2ene61060100 0.0 1001315
10:00−1ene5853100 0.0 1001313
13:00+1ene4746100 0.0 1000352
16:00+1ene4751100 0.0 998399
19:00−1ene4866100 0.0 997314
22:00−2ene596997 0.0 996290